FW0786 Weather Reports


time (UTC)temp
C
wind
direction
speed
KPH
gust
KPH
rain 1hr
cm
rain 24hr
cm
rain mn
cm
humidity
%
barometer
mb
20260506050712 12 108 1.6 4.8 0.10 0.28 0.10 92 1012.2
20260506050211 12 108 1.6 4.8 0.10 0.28 0.10 92 1012.1
20260506043711 12 46 1.6 3.2 0.10 0.23 0.05 90 1012.0
20260506043210 12 46 1.6 3.2 0.10 0.23 0.05 90 1011.4
20260506042710 12 46 1.6 3.2 0.10 0.23 0.05 90 1011.9
20260506042208 12 46 1.6 4.8 0.10 0.20 0.03 90 1011.8
20260506041208 12 31 3.2 14.5 0.08 0.18 0.00 89 1012.1
20260506040209 13 5 1.6 6.4 0.08 0.18 0.00 89 1012.3
20260506035707 13 278 0.0 3.2 0.05 0.15 0.15 89 1012.1
20260506035207 13 278 1.6 4.8 0.05 0.15 0.15 89 1011.6
20260506034705 13 278 3.2 12.9 0.05 0.15 0.15 90 1011.4
20260506034205 13 246 4.8 12.9 0.03 0.13 0.13 90 1011.3
20260506033705 13 338 6.4 14.5 0.03 0.13 0.13 90 1011.1
20260506033205 14 262 4.8 17.7 0.03 0.13 0.13 91 1010.7
20260506032706 14 331 3.2 17.7 0.03 0.13 0.13 92 1010.6
20260506032206 14 325 1.6 8.0 0.00 0.10 0.10 92 1010.6
20260506031705 14 9 1.6 8.0 0.00 0.10 0.10 92 1010.1
20260506031206 14 342 1.6 4.8 0.00 0.10 0.10 92 1010.2
20260506030705 14 342 1.6 4.8 0.00 0.10 0.10 91 1010.1
20260506030206 14 9 1.6 6.4 0.00 0.10 0.10 91 1010.1
20260506025706 14 5 1.6 6.4 0.00 0.10 0.10 91 1010.2
20260506025205 14 5 0.0 4.8 0.00 0.10 0.10 91 1010.2
20260506024206 14 9 0.0 4.8 0.00 0.10 0.10 91 1010.1
20260506023706 14 9 0.0 4.8 0.00 0.10 0.10 91 1010.1
20260506023206 14 15 0.0 0.0 0.00 0.10 0.10 90 1010.1
20260506022705 14 15 0.0 0.0 0.00 0.10 0.10 90 1010.4
20260506022208 14 15 0.0 3.2 0.00 0.10 0.10 90 1010.0
20260506021706 14 15 3.2 6.4 0.00 0.10 0.10 90 1010.2
20260506021206 14 15 3.2 6.4 0.00 0.10 0.10 90 1010.3
20260506020707 15 318 1.6 6.4 0.00 0.10 0.10 90 1010.3
20260506020206 15 355 0.0 4.8 0.00 0.10 0.10 90 1010.1
20260506015706 15 355 0.0 0.0 0.00 0.10 0.10 90 1010.1
20260506015206 15 355 0.0 1.6 0.00 0.10 0.10 89 1010.0
20260506014706 15 355 0.0 1.6 0.00 0.10 0.10 89 1010.0
20260506014206 15 355 0.0 3.2 0.00 0.10 0.10 89 1009.6
20260506013707 15 355 0.0 3.2 0.00 0.10 0.10 89 1009.5
20260506013206 15 355 0.0 1.6 0.00 0.10 0.10 89 1009.4
20260506012707 15 355 0.0 0.0 0.00 0.10 0.10 89 1009.4
20260506012206 15 355 0.0 3.2 0.00 0.10 0.10 89 1009.5
20260506011706 15 355 1.6 4.8 0.00 0.10 0.10 89 1009.3
20260506011205 15 355 1.6 4.8 0.00 0.10 0.10 89 1009.4
20260506010706 15 355 1.6 3.2 0.00 0.10 0.10 88 1009.5
20260506010205 15 355 1.6 4.8 0.00 0.10 0.10 88 1009.4
20260506005705 15 355 3.2 6.4 0.00 0.10 0.10 88 1009.4
20260506005205 15 355 3.2 6.4 0.00 0.10 0.10 87 1009.3
20260506004204 16 355 1.6 4.8 0.00 0.10 0.10 85 1009.3
20260506003705 16 355 3.2 6.4 0.00 0.10 0.10 84 1009.2
20260506003201 16 355 3.2 6.4 0.00 0.10 0.10 83 1009.1
20260506002700 16 106 1.6 4.8 0.00 0.10 0.10 82 1009.1
20260506002159 17 107 1.6 3.2 0.00 0.10 0.10 80 1009.2
20260506001659 17 108 0.0 4.8 0.00 0.10 0.10 78 1009.1
20260506001159 17 108 1.6 4.8 0.00 0.10 0.10 76 1009.0
20260506000700 17 84 1.6 6.4 0.00 0.10 0.10 75 1009.0
20260506000158 17 84 1.6 6.4 0.00 0.10 0.10 76 1009.1
20260505235657 17 239 1.6 3.2 0.00 0.10 0.10 77 1009.2
20260505235158 17 240 1.6 8.0 0.00 0.10 0.10 77 1009.1
20260505234657 17 194 3.2 8.0 0.00 0.10 0.10 78 1009.1
20260505233657 17 342 0.0 3.2 0.00 0.10 0.10 82 1009.1
20260505233157 17 9 1.6 4.8 0.00 0.10 0.10 83 1008.8
20260505232657 17 9 3.2 8.0 0.00 0.10 0.10 82 1008.7
20260505232158 17 9 3.2 8.0 0.00 0.10 0.10 82 1008.6
20260505231658 17 5 3.2 8.0 0.00 0.10 0.10 78 1008.5
20260505231155 17 166 1.6 8.0 0.00 0.10 0.10 74 1008.4
20260505230655 17 62 3.2 9.7 0.00 0.10 0.10 74 1008.4
20260505230155 17 163 3.2 9.7 0.00 0.10 0.10 78 1008.4
20260505225155 17 167 3.2 8.0 0.00 0.10 0.10 84 1008.2
20260505224655 17 167 3.2 8.0 0.00 0.10 0.10 85 1008.4
20260505224155 17 54 3.2 8.0 0.00 0.10 0.10 84 1008.4
20260505223655 17 53 3.2 8.0 0.00 0.10 0.10 84 1008.3
20260505223155 17 5 3.2 6.4 0.00 0.10 0.10 83 1008.2
20260505222153 17 169 3.2 8.0 0.00 0.10 0.10 82 1008.2
20260505221655 17 165 3.2 8.0 0.00 0.10 0.10 83 1008.2
20260505221153 17 110 0.0 4.8 0.00 0.10 0.10 83 1008.4
20260505220653 17 79 0.0 3.2 0.00 0.10 0.10 83 1008.4
20260505220154 17 79 1.6 4.8 0.00 0.10 0.10 83 1008.6
20260505215653 17 79 1.6 6.4 0.00 0.10 0.10 83 1008.5
20260505215152 17 5 3.2 6.4 0.00 0.10 0.10 84 1008.1
20260505214152 17 343 3.2 9.7 0.00 0.10 0.10 84 1007.8
20260505213651 17 42 3.2 9.7 0.00 0.10 0.10 83 1007.8
20260505213152 17 343 4.8 12.9 0.00 0.10 0.10 82 1007.9
20260505212650 18 49 4.8 12.9 0.00 0.10 0.10 81 1007.7
20260505212151 18 355 4.8 12.9 0.00 0.10 0.10 78 1007.8
20260505211651 19 342 3.2 11.3 0.00 0.10 0.10 72 1007.8
20260505211152 18 193 4.8 14.5 0.00 0.10 0.10 71 1007.9
20260505210650 18 136 4.8 14.5 0.00 0.10 0.10 72 1007.9
20260505205651 18 148 3.2 9.7 0.03 0.10 0.10 74 1007.9
20260505204649 18 215 4.8 14.5 0.08 0.10 0.10 75 1007.9
20260505204149 18 214 4.8 14.5 0.08 0.10 0.10 75 1007.9
20260505203648 18 200 4.8 11.3 0.08 0.10 0.10 75 1007.4
20260505202650 18 153 4.8 11.3 0.10 0.10 0.10 77 1007.1
20260505202149 18 148 4.8 12.9 0.10 0.10 0.10 78 1007.2
20260505201650 18 166 4.8 12.9 0.10 0.10 0.10 78 1007.2
20260505201147 18 196 4.8 8.0 0.10 0.10 0.10 79 1007.1
20260505200646 18 127 4.8 9.7 0.10 0.10 0.10 78 1007.1
20260505195645 19 233 11.3 41.8 0.08 0.08 0.08 72 1007.3
20260505195145 21 271 8.0 41.8 0.03 0.03 0.03 65 1007.7
20260505194143 21 178 4.8 22.5 0.03 0.03 0.03 60 1005.5
20260505192643 25 236 11.3 38.6 0.00 0.00 0.00 46 1005.0
20260505192143 26 246 9.7 38.6 0.00 0.00 0.00 39 1004.9
20260505191141 26 139 11.3 32.2 0.00 0.00 0.00 37 1004.2
20260505190641 26 263 12.9 32.2 0.00 0.00 0.00 38 1004.5
20260505190140 26 202 11.3 25.7 0.00 0.00 0.00 37 1004.1
20260505185640 26 167 9.7 30.6 0.00 0.00 0.00 37 1004.1
20260505185141 26 178 8.0 30.6 0.00 0.00 0.00 37 1004.2
20260505184641 26 297 8.0 20.9 0.00 0.00 0.00 37 1004.2
20260505184141 26 182 9.7 33.8 0.00 0.00 0.00 37 1004.3
20260505183640 26 80 9.7 33.8 0.00 0.00 0.00 37 1004.3
20260505183140 26 150 8.0 27.4 0.00 0.00 0.00 38 1004.4
20260505182641 26 68 9.7 27.4 0.00 0.00 0.00 38 1004.4
20260505182142 26 208 11.3 27.4 0.00 0.00 0.00 39 1004.6
20260505181640 26 206 11.3 27.4 0.00 0.00 0.00 37 1004.5
20260505180642 26 204 12.9 29.0 0.00 0.00 0.00 37 1005.0
20260505180140 26 191 11.3 35.4 0.00 0.00 0.00 37 1004.9
20260505175640 26 197 12.9 35.4 0.00 0.00 0.00 37 1004.9
20260505175141 26 129 12.9 30.6 0.00 0.00 0.00 37 1004.9
20260505174640 26 276 11.3 29.0 0.00 0.00 0.00 36 1005.0
20260505174141 26 236 9.7 29.0 0.00 0.00 0.00 37 1005.0
20260505173640 27 269 8.0 27.4 0.00 0.00 0.00 37 1005.0
20260505173140 26 202 11.3 30.6 0.00 0.00 0.00 36 1004.9
20260505172638 26 196 14.5 33.8 0.00 0.00 0.00 38 1005.1
20260505172140 26 208 12.9 33.8 0.00 0.00 0.00 36 1005.1
20260505171636 26 243 11.3 25.7 0.00 0.00 0.00 37 1005.3
20260505171134 26 143 11.3 25.7 0.00 0.00 0.00 37 1005.2
20260505170632 26 202 11.3 25.7 0.00 0.00 0.00 38 1005.3
20260505170130 26 337 9.7 22.5 0.00 0.00 0.00 39 1005.3
20260505165630 26 146 8.0 19.3 0.00 0.00 0.00 39 1005.3
20260505165131 26 202 8.0 20.9 0.00 0.00 0.00 40 1005.5
20260505164630 26 205 8.0 25.7 0.00 0.00 0.00 41 1005.5
20260505164129 25 149 9.7 25.7 0.00 0.00 0.00 42 1005.7
20260505163628 25 205 11.3 32.2 0.00 0.00 0.00 41 1006.0
20260505163130 25 216 11.3 32.2 0.00 0.00 0.00 42 1006.1
20260505162629 25 199 9.7 29.0 0.00 0.00 0.00 42 1006.3
20260505162126 25 183 9.7 24.1 0.00 0.00 0.00 43 1006.3
20260505161625 25 252 9.7 24.1 0.00 0.00 0.00 44 1006.5
20260505161127 24 217 11.3 27.4 0.00 0.00 0.00 44 1006.7
20260505160626 24 215 9.7 27.4 0.00 0.00 0.00 46 1006.7
20260505153125 23 137 8.0 24.1 0.00 0.00 0.00 49 1007.3
20260505152625 23 198 8.0 24.1 0.00 0.00 0.00 49 1007.6
20260505151625 22 80 8.0 20.9 0.00 0.00 0.00 51 1007.7
20260505151124 22 236 8.0 20.9 0.00 0.00 0.00 52 1007.7
20260505150123 21 171 4.8 17.7 0.00 0.00 0.00 54 1007.7
20260505140620 21 240 9.7 29.0 0.00 0.00 0.00 53 1008.3
20260505140119 20 195 8.0 19.3 0.00 0.00 0.00 54 1008.1
20260505130113 11 13 1.6 3.2 0.00 0.00 0.00 79 1008.6
20260505124611 11 355 4.8 6.4 0.00 0.00 0.00 79 1008.6
20260505124111 11 21 4.8 8.0 0.00 0.00 0.00 80 1008.6
20260505123611 11 0 3.2 8.0 0.00 0.00 0.00 80 1008.5
20260505123110 10 5 1.6 4.8 0.00 0.00 0.00 81 1008.3
20260505121610 10 348 1.6 4.8 0.00 0.00 0.00 82 1008.3
20260505121110 10 348 1.6 3.2 0.00 0.00 0.00 82 1008.3
20260505120610 10 348 0.0 1.6 0.00 0.00 0.00 84 1008.1
20260505120110 9 348 0.0 3.2 0.00 0.00 0.00 85 1008.3
20260505115607 9 348 0.0 3.2 0.00 0.00 0.00 86 1008.7
20260505115107 8 348 1.6 3.2 0.00 0.00 0.00 87 1009.0
20260505114607 8 347 1.6 4.8 0.00 0.00 0.00 87 1009.0
20260505114105 8 348 3.2 8.0 0.00 0.00 0.00 88 1009.1
20260505113105 7 24 3.2 6.4 0.00 0.00 0.00 88 1009.1
20260505112605 7 288 1.6 4.8 0.00 0.00 0.00 89 1008.7
20260505111607 6 38 0.0 3.2 0.00 0.00 0.00 89 1008.5
20260505111106 6 38 1.6 3.2 0.00 0.00 0.00 89 1008.7
20260505110605 6 38 1.6 4.8 0.00 0.00 0.00 89 1008.7
20260505110106 6 38 1.6 4.8 0.00 0.00 0.00 89 1009.0
20260505102105 6 38 1.6 6.4 0.00 0.00 0.00 90 1009.1
20260505101605 5 14 1.6 4.8 0.00 0.00 0.00 90 1009.1
20260505101106 5 14 1.6 8.0 0.00 0.00 0.00 90 1009.0
20260505100605 5 5 1.6 8.0 0.00 0.00 0.00 89 1009.1
20260505100104 5 22 1.6 6.4 0.00 0.00 0.00 89 1009.0
20260505095603 5 32 1.6 4.8 0.00 0.03 0.00 89 1008.8
20260505095103 5 32 3.2 6.4 0.00 0.03 0.00 89 1008.9
20260505094603 5 28 3.2 6.4 0.00 0.03 0.00 89 1008.9
20260505094103 5 30 1.6 6.4 0.00 0.03 0.00 90 1008.8
20260505093605 5 355 1.6 6.4 0.00 0.03 0.00 89 1008.8
20260505093104 5 355 1.6 6.4 0.00 0.03 0.00 89 1008.7
20260505092601 5 24 1.6 6.4 0.00 0.03 0.00 89 1008.8
20260505092101 5 34 1.6 6.4 0.00 0.03 0.00 89 1008.8
20260505091601 5 24 1.6 8.0 0.00 0.03 0.00 89 1008.8
20260505091103 5 24 1.6 8.0 0.00 0.03 0.00 89 1009.0
20260505090601 5 27 3.2 8.0 0.00 0.03 0.00 89 1009.0
20260505085101 5 46 0.0 3.2 0.00 0.03 0.00 89 1009.0
20260505084601 5 38 1.6 4.8 0.00 0.03 0.00 89 1009.3
20260505084100 5 39 1.6 6.4 0.00 0.03 0.00 89 1009.2
20260505083559 5 0 1.6 6.4 0.00 0.03 0.00 89 1009.3
20260505083059 5 35 1.6 4.8 0.00 0.03 0.00 89 1009.2
20260505082601 5 35 1.6 3.2 0.00 0.03 0.00 89 1009.2
20260505082100 5 35 1.6 3.2 0.00 0.03 0.00 89 1009.1
20260505081557 5 35 1.6 4.8 0.00 0.03 0.00 89 1009.1
20260505080557 5 51 3.2 6.4 0.00 0.03 0.00 89 1009.1
20260505080058 5 44 3.2 6.4 0.00 0.03 0.00 89 1009.0
20260505075558 5 44 3.2 8.0 0.00 0.03 0.00 89 1009.1
20260505075054 5 5 3.2 8.0 0.00 0.03 0.00 89 1009.1
20260505074555 5 349 1.6 8.0 0.00 0.03 0.00 89 1009.2
20260505074055 5 13 1.6 4.8 0.00 0.03 0.00 88 1009.2
20260505073556 5 13 0.0 4.8 0.00 0.03 0.00 88 1009.1
20260505073055 6 13 1.6 11.3 0.00 0.03 0.00 88 1009.2
20260505072554 6 13 3.2 11.3 0.00 0.03 0.00 88 1009.2
20260505072055 6 11 1.6 8.0 0.00 0.03 0.00 88 1009.3
20260505071555 6 38 1.6 4.8 0.00 0.03 0.00 88 1009.3
20260505071055 6 38 1.6 6.4 0.00 0.03 0.00 88 1009.3
20260505070555 6 38 1.6 6.4 0.00 0.03 0.00 88 1009.2
20260505070053 6 59 1.6 4.8 0.00 0.03 0.00 88 1009.3
20260505065554 6 59 1.6 6.4 0.00 0.03 0.00 88 1009.3
20260505064553 6 17 3.2 11.3 0.00 0.03 0.00 88 1009.2
20260505064053 6 9 1.6 8.0 0.00 0.03 0.00 88 1009.2
20260505063052 6 11 3.2 9.7 0.00 0.03 0.00 87 1009.3
20260505062552 6 28 4.8 11.3 0.00 0.03 0.00 87 1009.3
20260505062053 6 17 3.2 11.3 0.00 0.03 0.00 87 1009.2
20260505061553 6 19 3.2 12.9 0.00 0.03 0.00 86 1009.2
20260505061052 6 19 3.2 12.9 0.00 0.03 0.00 87 1009.2
20260505060552 6 34 1.6 6.4 0.00 0.03 0.00 86 1009.2
20260505060050 6 34 3.2 8.0 0.00 0.03 0.00 86 1009.3